Time,TemperatureF,DewpointF,PressureIn,WindDirection,WindDirectionDegrees,WindSpeedMPH,WindSpeedGustMPH,Humidity,HourlyPrecipIn,Conditions,Clouds,dailyrainin,SoftwareType,DateUTC
2013-06-12 19:54:00,70.3,55.8,29.92,ESE,117,1.0,1.0,60,0.00,,,0.00,Wunderground v.1.15,2013-06-12 23:54:00,
2013-06-12 20:05:00,69.7,56.1,29.92,ESE,119,0.0,0.0,62,0.00,,,0.00,Wunderground v.1.15,2013-06-13 00:05:00,
2013-06-12 20:10:00,69.5,56.3,29.92,ESE,120,0.0,0.0,63,0.00,,,0.00,Wunderground v.1.15,2013-06-13 00:10:00,
2013-06-12 20:15:00,69.2,56.1,29.92,ESE,120,0.0,0.0,63,0.00,,,0.00,Wunderground v.1.15,2013-06-13 00:15:00,
2013-06-12 20:20:00,68.8,56.6,29.92,East,91,0.0,0.0,65,0.00,,,0.00,Wunderground v.1.15,2013-06-13 00:20:00,
2013-06-12 20:25:00,68.5,56.3,29.92,ESE,113,0.0,0.0,65,0.00,,,0.00,Wunderground v.1.15,2013-06-13 00:25:00,
2013-06-12 20:30:00,68.3,56.5,29.91,ESE,113,0.0,0.0,66,0.00,,,0.00,Wunderground v.1.15,2013-06-13 00:30:00,
2013-06-12 20:35:00,68.0,56.6,29.91,ESE,113,0.0,0.0,67,0.00,,,0.00,Wunderground v.1.15,2013-06-13 00:35:00,
2013-06-12 20:40:00,67.6,56.7,29.91,ESE,113,0.0,0.0,68,0.00,,,0.00,Wunderground v.1.15,2013-06-13 00:40:00,
2013-06-12 20:45:00,66.9,56.8,29.91,ESE,112,0.0,0.0,70,0.00,,,0.00,Wunderground v.1.15,2013-06-13 00:45:00,
2013-06-12 20:50:00,66.4,56.7,29.91,ESE,113,0.0,0.0,71,0.00,,,0.00,Wunderground v.1.15,2013-06-13 00:50:00,
2013-06-12 20:55:00,66.2,56.9,29.91,ESE,113,0.0,0.0,72,0.00,,,0.00,Wunderground v.1.15,2013-06-13 00:55:00,
2013-06-12 21:05:00,65.5,56.6,29.91,ESE,112,0.0,0.0,73,0.00,,,0.00,Wunderground v.1.15,2013-06-13 01:05:00,
2013-06-12 21:10:00,65.2,56.7,29.91,ESE,112,0.0,0.0,74,0.00,,,0.00,Wunderground v.1.15,2013-06-13 01:10:00,
2013-06-12 21:15:00,64.9,56.8,29.91,ESE,113,0.0,0.0,75,0.00,,,0.00,Wunderground v.1.15,2013-06-13 01:15:00,
2013-06-12 21:20:00,64.8,57.1,29.92,ESE,112,0.0,0.0,76,0.00,,,0.00,Wunderground v.1.15,2013-06-13 01:20:00,
2013-06-12 21:25:00,64.7,57.0,29.91,ESE,113,0.0,0.0,76,0.00,,,0.00,Wunderground v.1.15,2013-06-13 01:25:00,
2013-06-12 21:35:00,64.7,57.0,29.91,ESE,113,0.0,0.0,76,0.00,,,0.00,Wunderground v.1.15,2013-06-13 01:35:00,
2013-06-12 21:40:00,64.6,56.9,29.92,ESE,112,0.0,0.0,76,0.00,,,0.00,Wunderground v.1.15,2013-06-13 01:40:00,
2013-06-12 21:45:00,64.5,57.1,29.92,ESE,113,0.0,0.0,77,0.00,,,0.00,Wunderground v.1.15,2013-06-13 01:45:00,
2013-06-12 21:50:00,64.4,57.0,29.92,ESE,113,0.0,0.0,77,0.00,,,0.00,Wunderground v.1.15,2013-06-13 01:50:00,
2013-06-12 21:55:00,64.4,57.0,29.91,ESE,113,0.0,0.0,77,0.00,,,0.00,Wunderground v.1.15,2013-06-13 01:55:00,
2013-06-12 22:05:00,64.4,57.0,29.91,ESE,113,0.0,0.0,77,0.00,,,0.00,Wunderground v.1.15,2013-06-13 02:05:00,
2013-06-12 22:10:00,64.3,57.3,29.91,ESE,113,0.0,0.0,78,0.00,,,0.00,Wunderground v.1.15,2013-06-13 02:10:00,
2013-06-12 22:15:00,64.2,57.2,29.90,ESE,112,0.0,0.0,78,0.00,,,0.00,Wunderground v.1.15,2013-06-13 02:15:00,
2013-06-12 22:20:00,64.0,57.0,29.90,ESE,113,0.0,0.0,78,0.00,,,0.00,Wunderground v.1.15,2013-06-13 02:20:00,
2013-06-12 22:25:00,63.9,56.9,29.90,ESE,112,0.0,0.0,78,0.00,,,0.00,Wunderground v.1.15,2013-06-13 02:25:00,
2013-06-12 22:30:00,63.7,56.7,29.90,ESE,113,0.0,0.0,78,0.00,,,0.00,Wunderground v.1.15,2013-06-13 02:30:00,
2013-06-12 22:40:00,63.4,56.8,29.90,ESE,113,0.0,0.0,79,0.00,,,0.00,Wunderground v.1.15,2013-06-13 02:40:00,
2013-06-12 22:45:00,63.1,56.8,29.90,ESE,113,0.0,0.0,80,0.00,,,0.00,Wunderground v.1.15,2013-06-13 02:45:00,
2013-06-12 22:50:00,62.8,56.9,29.90,ESE,113,0.0,0.0,81,0.00,,,0.00,Wunderground v.1.15,2013-06-13 02:50:00,
2013-06-12 22:55:00,62.7,57.1,29.90,ESE,113,0.0,0.0,82,0.00,,,0.00,Wunderground v.1.15,2013-06-13 02:55:00,
2013-06-12 23:05:00,62.6,57.4,29.90,ESE,113,0.0,0.0,83,0.00,,,0.00,Wunderground v.1.15,2013-06-13 03:05:00,
2013-06-12 23:10:00,62.7,57.1,29.90,ESE,113,0.0,0.0,82,0.00,,,0.00,Wunderground v.1.15,2013-06-13 03:10:00,
2013-06-12 23:15:00,62.6,57.4,29.89,ESE,113,0.0,0.0,83,0.00,,,0.00,Wunderground v.1.15,2013-06-13 03:15:00,
2013-06-12 23:20:00,62.6,57.4,29.89,ESE,113,0.0,0.0,83,0.00,,,0.00,Wunderground v.1.15,2013-06-13 03:20:00,
2013-06-12 23:25:00,62.5,57.6,29.89,ESE,113,0.0,0.0,84,0.00,,,0.00,Wunderground v.1.15,2013-06-13 03:25:00,
2013-06-12 23:30:00,62.6,58.0,29.89,ESE,112,0.0,0.0,85,0.00,,,0.00,Wunderground v.1.15,2013-06-13 03:30:00,
2013-06-12 23:35:00,62.6,57.7,29.89,ESE,113,0.0,1.0,84,0.00,,,0.00,Wunderground v.1.15,2013-06-13 03:35:00,
2013-06-12 23:45:00,62.8,57.9,29.89,SSE,166,0.0,0.0,84,0.00,,,0.00,Wunderground v.1.15,2013-06-13 03:45:00,
2013-06-12 23:50:00,62.8,57.9,29.88,SSE,166,0.0,0.0,84,0.00,,,0.00,Wunderground v.1.15,2013-06-13 03:50:00,
2013-06-12 23:55:00,62.8,57.9,29.88,SE,143,0.0,0.0,84,0.00,,,0.00,Wunderground v.1.15,2013-06-13 03:55:00,